Weather History for Springfield, IL

Change the Weather History Date:

Wednesday, December 8, 2010

  Actual Average Record
Temperature  
Mean Temperature 21 °F 32 °F  
Max Temperature 31 °F 41 °F 68 °F (1991)
Min Temperature 11 °F 24 °F -6 °F (1882)
Degree Days  
Heating Degree Days 44 33  
Month to date heating degree days 315 249  
Since 1 July heating degree days 1189 1317  
Cooling Degree Days 0 0  
Month to date cooling degree days 0 0  
Year to date cooling degree days 1554 1122  
Moisture  
Dew Point 10 °F    
Average Humidity 65    
Maximum Humidity 84    
Minimum Humidity 46    
Precipitation  
Precipitation 0.00 in 0.09 in 0.95 in (1885)
Month to date precipitation T 0.75  
Year to date precipitation 45.25 35.66  
Snow  
Snow 0.00 in 0.10 in 4.70 in (2005)
Month to date snowfall T 1.0  
Since 1 July snowfall T 1.6  
Snow Depth 0.00 in    
Sea Level Pressure  
Sea Level Pressure 30.30 in    
Wind  
Wind Speed 4 mph (NW)    
Max Wind Speed 9 mph    
Max Gust Speed 14 mph    
Visibility 10 miles    
Events      
T = Trace of Precipitation, MM = Missing Value Source: NWS Daily Summary

Daily Weather History Graph

Daily Weather History Graph

Search for Another Location

Airport:

Trip Planner

Search our weather history database for the weather conditions in past years. The results will help you decide how hot, cold, wet, or windy it might be!

Date:

Astronomy

Dec. 08, 2010 Rise Set
Actual Time 7:07 AM CST 4:33 PM CST
Civil Twilight 6:37 AM CST 5:04 PM CST
Nautical Twilight 6:03 AM CST 5:37 PM CST
Astronomical Twilight 5:30 AM CST 6:10 PM CST
Moon 9:33 AM CST (12/8) 7:36 PM CST (12/8)
Length of Visible Light 10h 26m
Length of Day
9h 26m
Waxing Crescent, 10% of the Moon is Illuminated
Dec 8
Waxing Crescent
Dec 13
First Quarter
Dec 21
Full
Dec 27
Last Quarter
Jan 4
New

Hourly Weather History & Observations

Time (CST) Temp. Windchill Dew Point Humidity Pressure Visibility Wind Dir Wind Speed Gust Speed Precip Events Conditions
12:52 AM 14.0 °F - 9.0 °F 80% 30.30 in 10.0 mi Calm Calm - N/A   Clear
1:52 AM 12.0 °F 4.1 °F 8.1 °F 84% 30.31 in 10.0 mi West 4.6 mph - N/A   Clear
2:52 AM 14.0 °F 6.5 °F 8.1 °F 77% 30.30 in 10.0 mi West 4.6 mph - N/A   Clear
3:52 AM 14.0 °F - 8.1 °F 77% 30.29 in 10.0 mi Calm Calm - N/A   Clear
4:52 AM 12.0 °F - 7.0 °F 80% 30.28 in 10.0 mi Calm Calm - N/A   Clear
5:52 AM 10.9 °F 2.9 °F 7.0 °F 84% 30.28 in 10.0 mi WSW 4.6 mph - N/A   Clear
6:52 AM 12.9 °F 2.6 °F 8.1 °F 81% 30.30 in 10.0 mi WNW 6.9 mph - N/A   Scattered Clouds
7:52 AM 14.0 °F 6.5 °F 9.0 °F 80% 30.32 in 10.0 mi NW 4.6 mph - N/A   Scattered Clouds
8:52 AM 18.0 °F 9.8 °F 10.0 °F 71% 30.33 in 10.0 mi WNW 5.8 mph - N/A   Clear
9:52 AM 21.0 °F 11.4 °F 10.0 °F 63% 30.34 in 10.0 mi WNW 8.1 mph - N/A   Clear
10:52 AM 23.0 °F 18.4 °F 10.0 °F 58% 30.32 in 10.0 mi NNW 3.5 mph - N/A   Clear
11:52 AM 26.6 °F 19.1 °F 12.2 °F 55% 30.28 in 10.0 mi WNW 6.9 mph - N/A   Clear
12:52 PM 28.0 °F - 12.9 °F 53% 30.29 in 10.0 mi Calm Calm - N/A   Clear
1:52 PM 30.2 °F 23.4 °F 12.2 °F 47% 30.26 in 10.0 mi WNW 6.9 mph - N/A   Clear
2:52 PM 30.2 °F 24.3 °F 12.2 °F 47% 30.26 in 10.0 mi WNW 5.8 mph - N/A   Clear
3:52 PM 28.9 °F 21.1 °F 10.9 °F 47% 30.31 in 10.0 mi NW 8.1 mph - N/A   Clear
4:52 PM 25.0 °F 19.3 °F 9.0 °F 51% 30.30 in 10.0 mi NNW 4.6 mph - N/A   Clear
5:52 PM 24.1 °F - 9.0 °F 53% 30.31 in 10.0 mi Calm Calm - N/A   Clear
6:52 PM 21.9 °F - 12.9 °F 68% 30.32 in 10.0 mi Calm Calm - N/A   Clear
7:52 PM 19.0 °F - 10.9 °F 71% 30.32 in 10.0 mi Calm Calm - N/A   Clear
8:52 PM 18.0 °F 9.8 °F 9.0 °F 68% 30.32 in 10.0 mi East 5.8 mph - N/A   Clear
9:52 PM 16.0 °F 10.4 °F 7.0 °F 68% 30.33 in 10.0 mi East 3.5 mph - N/A   Clear
10:52 PM 16.0 °F 8.8 °F 8.1 °F 71% 30.33 in 10.0 mi East 4.6 mph - N/A   Clear
11:52 PM 16.0 °F 7.4 °F 8.1 °F 71% 30.32 in 10.0 mi ESE 5.8 mph - N/A   Clear